Weather History for KTTF - July, 2014

Change the Weather History Date:

Wednesday, July 2, 2014

  Actual Average Record
Temperature  
Mean Temperature 72 °F -  
Max Temperature 80 °F 81 °F 96 °F (1963)
Min Temperature 64 °F 62 °F 44 °F (2001)
Cooling Degree Days 7    
Growing Degree Days 22 (Base 50)    
Moisture  
Dew Point 60 °F    
Average Humidity 64    
Maximum Humidity 83    
Minimum Humidity 47    
Precipitation  
Precipitation 0.00 in - - ()
Sea Level Pressure  
Sea Level Pressure 29.85 in    
Wind  
Wind Speed 8 mph (WSW)    
Max Wind Speed 22 mph    
Max Gust Speed 29 mph    
Visibility 10 miles    
Events      
Averages and records for this station are not official NWS values.
T = Trace of Precipitation, MM = Missing Value Source: NWS Daily Summary

Daily Weather History Graph

Daily Weather History Graph

Search for Another Location

Airport or City:

Trip Planner

Search our weather history database for the weather conditions in past years. The results will help you decide how hot, cold, wet, or windy it might be!

Date:

Astronomy

Jul. 02, 2014 Rise Set
Actual Time 6:02 AM EDT 9:12 PM EDT
Civil Twilight 5:28 AM EDT 9:46 PM EDT
Nautical Twilight 4:44 AM EDT 10:30 PM EDT
Astronomical Twilight 3:51 AM EDT 11:23 PM EDT
Moon 11:10 AM EDT (7/2) 11:59 PM EDT (7/2)
Length of Visible Light 16h 18m
Length of Day
15h 10m
Waxing Crescent, 24% of the Moon is Illuminated
Jul 2
Waxing Crescent
Jul 5
First Quarter
Jul 12
Full
Jul 18
Last Quarter
Jul 26
New

Hourly Weather History & Observations

Time (EDT) Temp. Heat Index Dew Point Humidity Pressure Visibility Wind Dir Wind Speed Gust Speed Precip Events Conditions
12:12 AM 73.4 °F - 62.6 °F 69% 29.77 in 10.0 mi WSW 6.9 mph - N/A   Unknown
12:32 AM 73.4 °F - 62.6 °F 69% 29.79 in 10.0 mi WSW 6.9 mph - N/A   Unknown
1:12 AM 73.4 °F - 62.6 °F 69% 29.79 in 10.0 mi WSW 4.6 mph - N/A   Unknown
1:32 AM 71.6 °F - 62.6 °F 73% 29.79 in 10.0 mi WSW 5.8 mph - N/A   Unknown
1:52 AM 71.6 °F - 62.6 °F 73% 29.79 in 10.0 mi SW 5.8 mph - N/A   Unknown
2:12 AM 71.6 °F - 62.6 °F 73% 29.79 in 10.0 mi WSW 3.5 mph - N/A   Unknown
2:32 AM 71.6 °F - 62.6 °F 73% 29.79 in 10.0 mi SW 5.8 mph - N/A   Unknown
2:52 AM 71.6 °F - 62.6 °F 73% 29.79 in 10.0 mi WSW 5.8 mph - N/A   Unknown
3:13 AM 69.8 °F - 62.6 °F 78% 29.78 in 10.0 mi WSW 5.8 mph - N/A   Unknown
3:33 AM 69.8 °F - 62.6 °F 78% 29.77 in 10.0 mi WSW 5.8 mph - N/A   Unknown
3:53 AM 69.8 °F - 62.6 °F 78% 29.77 in 10.0 mi WSW 4.6 mph - N/A   Unknown
4:13 AM 69.8 °F - 62.6 °F 78% 29.77 in 10.0 mi WSW 4.6 mph - N/A   Unknown
4:33 AM 69.8 °F - 62.6 °F 78% 29.77 in 10.0 mi WSW 4.6 mph - N/A   Unknown
4:53 AM 69.8 °F - 62.6 °F 78% 29.77 in 10.0 mi WSW 6.9 mph - N/A   Unknown
5:13 AM 69.8 °F - 62.6 °F 78% 29.77 in 10.0 mi SW 5.8 mph - N/A   Unknown
5:33 AM 69.8 °F - 62.6 °F 78% 29.78 in 10.0 mi SW 6.9 mph - N/A   Unknown
5:53 AM 68.0 °F - 62.6 °F 83% 29.79 in 10.0 mi SW 5.8 mph - N/A   Unknown
6:13 AM 68.0 °F - 62.6 °F 83% 29.79 in 10.0 mi SW 4.6 mph - N/A   Unknown
6:33 AM 68.0 °F - 62.6 °F 83% 29.80 in 10.0 mi SW 4.6 mph - N/A   Unknown
6:53 AM 69.8 °F - 62.6 °F 78% 29.81 in 10.0 mi SW 4.6 mph - N/A   Unknown
7:14 AM 69.8 °F - 64.4 °F 83% 29.81 in 10.0 mi WSW 6.9 mph - N/A   Unknown
7:34 AM 71.6 °F - 64.4 °F 78% 29.82 in 10.0 mi SW 8.1 mph - N/A   Unknown
7:54 AM 71.6 °F - 64.4 °F 78% 29.82 in 10.0 mi SW 8.1 mph - N/A   Unknown
8:14 AM 73.4 °F - 64.4 °F 73% 29.83 in 10.0 mi SW 9.2 mph - N/A   Unknown
8:34 AM 73.4 °F - 64.4 °F 73% 29.83 in 10.0 mi SW 11.5 mph - N/A   Unknown
8:54 AM 73.4 °F - 64.4 °F 73% 29.83 in 10.0 mi SW 9.2 mph - N/A   Unknown
9:14 AM 75.2 °F - 64.4 °F 69% 29.83 in 10.0 mi SW 10.4 mph - N/A   Unknown
9:35 AM 77.0 °F - 64.4 °F 65% 29.83 in 10.0 mi SW 6.9 mph - N/A   Unknown
9:55 AM 78.8 °F - 64.4 °F 61% 29.83 in 10.0 mi SW 9.2 mph - N/A   Unknown
10:10 AM 77.0 °F - 62.6 °F 61% 29.84 in 10.0 mi WSW 12.7 mph 17.3 mph N/A   Unknown
10:30 AM 78.8 °F - 62.6 °F 57% 29.84 in 10.0 mi WSW 16.1 mph 19.6 mph N/A   Unknown
10:50 AM 78.8 °F - 62.6 °F 57% 29.84 in 10.0 mi West 13.8 mph 20.7 mph N/A   Unknown
11:10 AM 78.8 °F - 62.6 °F 57% 29.85 in 10.0 mi WSW 17.3 mph 21.9 mph N/A   Unknown
11:30 AM 78.8 °F - 62.6 °F 57% 29.85 in 10.0 mi SW 16.1 mph 25.3 mph N/A   Unknown
11:50 AM 78.8 °F - 62.6 °F 57% 29.85 in 10.0 mi WSW 12.7 mph 23.0 mph N/A   Unknown
12:10 PM 78.8 °F - 60.8 °F 54% 29.84 in 10.0 mi WSW 16.1 mph 23.0 mph N/A   Unknown
12:30 PM 80.6 °F 81.5 °F 60.8 °F 51% 29.84 in 10.0 mi WSW 12.7 mph 23.0 mph N/A   Unknown
12:50 PM 80.6 °F 81.1 °F 59.0 °F 48% 29.84 in 10.0 mi WSW 18.4 mph 26.5 mph N/A   Unknown
1:10 PM 80.6 °F 81.5 °F 60.8 °F 51% 29.84 in 10.0 mi WSW 13.8 mph 23.0 mph N/A   Unknown
1:30 PM 80.6 °F 81.5 °F 60.8 °F 51% 29.85 in 10.0 mi West 21.9 mph 25.3 mph N/A   Unknown
1:51 PM 80.6 °F 81.5 °F 60.8 °F 51% 29.85 in 10.0 mi WSW 19.6 mph 28.8 mph N/A   Unknown
2:11 PM 78.8 °F - 59.0 °F 51% 29.85 in 10.0 mi West 19.6 mph 25.3 mph N/A   Unknown
2:31 PM 80.6 °F 81.1 °F 59.0 °F 48% 29.85 in 10.0 mi West 16.1 mph 27.6 mph N/A   Unknown
2:51 PM 78.8 °F - 57.2 °F 47% 29.85 in 10.0 mi West 17.3 mph 23.0 mph N/A   Unknown
3:11 PM 77.0 °F - 57.2 °F 50% 29.86 in 10.0 mi West 13.8 mph 21.9 mph N/A   Unknown
3:31 PM 78.8 °F - 57.2 °F 47% 29.86 in 10.0 mi WSW 15.0 mph 25.3 mph N/A   Unknown
3:51 PM 78.8 °F - 57.2 °F 47% 29.87 in 10.0 mi West 16.1 mph 24.2 mph N/A   Unknown
4:11 PM 78.8 °F - 57.2 °F 47% 29.87 in 10.0 mi West 15.0 mph 21.9 mph N/A   Unknown
4:31 PM 78.8 °F - 57.2 °F 47% 29.87 in 10.0 mi West 15.0 mph 23.0 mph N/A   Unknown
5:12 PM 78.8 °F - 57.2 °F 47% 29.88 in 10.0 mi WNW 16.1 mph 23.0 mph N/A   Unknown
5:32 PM 77.0 °F - 57.2 °F 50% 29.88 in 10.0 mi West 15.0 mph 19.6 mph N/A   Unknown
5:52 PM 77.0 °F - 55.4 °F 47% 29.88 in 10.0 mi West 17.3 mph 20.7 mph N/A   Unknown
6:12 PM 77.0 °F - 55.4 °F 47% 29.88 in 10.0 mi West 13.8 mph 20.7 mph N/A   Unknown
6:32 PM 75.2 °F - 55.4 °F 50% 29.88 in 10.0 mi West 15.0 mph - N/A   Unknown
6:52 PM 77.0 °F - 57.2 °F 50% 29.89 in 10.0 mi West 15.0 mph 20.7 mph N/A   Unknown
7:12 PM 75.2 °F - 57.2 °F 53% 29.89 in 10.0 mi West 11.5 mph 16.1 mph N/A   Unknown
7:32 PM 75.2 °F - 57.2 °F 53% 29.90 in 10.0 mi WNW 9.2 mph - N/A   Unknown
7:52 PM 73.4 °F - 57.2 °F 57% 29.90 in 10.0 mi NW 8.1 mph - N/A   Unknown
8:13 PM 73.4 °F - 57.2 °F 57% 29.90 in 10.0 mi WNW 9.2 mph - N/A   Unknown
8:33 PM 73.4 °F - 57.2 °F 57% 29.90 in 10.0 mi WNW 10.4 mph - N/A   Unknown
8:53 PM 71.6 °F - 57.2 °F 60% 29.90 in 10.0 mi WNW 6.9 mph - N/A   Unknown
9:13 PM 69.8 °F - 57.2 °F 64% 29.91 in 10.0 mi WNW 4.6 mph - N/A   Unknown
9:33 PM 69.8 °F - 57.2 °F 64% 29.92 in 10.0 mi West 3.5 mph - N/A   Unknown
9:53 PM 66.2 °F - 57.2 °F 73% 29.93 in 10.0 mi WNW 3.5 mph - N/A   Unknown
10:13 PM 66.2 °F - 57.2 °F 73% 29.94 in 10.0 mi Calm Calm - N/A   Unknown
10:33 PM 64.4 °F - 57.2 °F 77% 29.94 in 10.0 mi Calm Calm - N/A   Unknown
10:53 PM 64.4 °F - 57.2 °F 77% 29.94 in 10.0 mi Calm Calm - N/A   Unknown
11:13 PM 66.2 °F - 57.2 °F 73% 29.94 in 10.0 mi Calm Calm - N/A   Unknown
11:33 PM 64.4 °F - 57.2 °F 77% 29.94 in 10.0 mi Calm Calm - N/A   Unknown
11:54 PM 64.4 °F - 57.2 °F 77% 29.94 in 10.0 mi Calm Calm - N/A   Unknown